Total_Precipitation_Accumulation
0.40 0.38 0.46 0.68 0.79 0.71 0.77 0.87 1.13 1.00 0.86 0.84 0.84 0.92 0.94 0.93 0.94 0.95 0.99 0.99 0.97 0.99 1.04 1.17 1.24 1.26 1.32 1.39 1.44 1.54 1.61 1.62 1.61 1.49 1.36 1.34 1.38 1.20 1.20 1.26 1.26 1.31 1.38 1.45
0.25 0.22 0.31 0.56 0.68 0.69 0.68 0.69 0.71 0.64 0.63 0.54 0.54 0.62 0.69 0.75 0.71 0.73 0.79 0.79 0.77 0.77 0.80 0.87 0.82 0.85 0.92 1.07 1.26 1.43 1.48 1.44 1.40 1.32 1.31 1.28 1.25 1.18 1.14 1.15 1.19 1.22 1.25 1.41
0.36 0.27 0.36 0.59 0.60 0.64 0.50 0.37 0.36 0.45 0.46 0.39 0.40 0.50 0.59 0.68 0.71 0.69 0.69 0.70 0.72 0.72 0.70 0.74 0.72 0.75 0.81 0.91 1.08 1.22 1.26 1.22 1.13 1.08 1.08 1.10 1.09 1.14 1.16 1.15 1.15 1.17 1.13 1.24
0.51 0.48 0.71 0.78 0.61 0.53 0.45 0.31 0.24 0.26 0.29 0.30 0.34 0.44 0.52 0.59 0.68 0.65 0.62 0.62 0.66 0.67 0.65 0.69 0.76 0.81 0.87 0.93 0.96 1.05 1.14 1.12 1.06 1.00 0.95 0.95 0.96 1.03 1.12 1.10 1.07 1.09 1.07 1.03
0.66 0.65 0.66 0.62 0.45 0.42 0.51 0.51 0.29 0.24 0.24 0.24 0.26 0.38 0.45 0.51 0.54 0.50 0.48 0.46 0.46 0.48 0.50 0.56 0.64 0.69 0.70 0.72 0.73 0.79 0.86 0.91 0.88 0.81 0.84 0.91 0.89 1.02 1.07 0.99 0.99 0.96 1.00 0.99
0.71 0.74 0.78 0.57 0.30 0.26 0.41 0.69 0.37 0.24 0.19 0.18 0.24 0.40 0.41 0.38 0.39 0.34 0.33 0.32 0.30 0.34 0.36 0.41 0.49 0.62 0.66 0.61 0.54 0.56 0.62 0.65 0.71 0.70 0.73 0.81 0.89 0.98 1.02 0.97 0.99 0.94 0.90 0.87
0.78 0.92 0.95 0.65 0.36 0.31 0.63 0.75 0.38 0.23 0.18 0.20 0.25 0.28 0.28 0.29 0.32 0.26 0.28 0.29 0.28 0.29 0.34 0.39 0.45 0.54 0.58 0.59 0.54 0.53 0.56 0.56 0.59 0.62 0.68 0.79 0.87 0.83 0.82 0.86 0.91 0.91 0.93 0.87
0.99 1.22 1.30 0.81 0.61 0.63 0.61 0.41 0.29 0.20 0.19 0.22 0.24 0.22 0.22 0.24 0.24 0.20 0.22 0.25 0.26 0.27 0.32 0.41 0.43 0.44 0.47 0.48 0.47 0.48 0.49 0.52 0.50 0.49 0.52 0.59 0.68 0.76 0.76 0.76 0.80 0.79 0.79 0.77
1.10 1.12 0.94 0.70 0.63 0.54 0.46 0.37 0.26 0.24 0.22 0.23 0.23 0.22 0.21 0.20 0.19 0.17 0.19 0.21 0.25 0.30 0.36 0.42 0.45 0.43 0.42 0.42 0.43 0.47 0.50 0.52 0.49 0.48 0.49 0.53 0.61 0.71 0.79 0.82 0.81 0.79 0.72 0.68
0.58 0.60 0.53 0.43 0.37 0.36 0.33 0.31 0.25 0.23 0.23 0.24 0.24 0.23 0.21 0.19 0.18 0.18 0.18 0.20 0.24 0.31 0.35 0.41 0.43 0.43 0.42 0.41 0.40 0.42 0.45 0.50 0.51 0.52 0.54 0.54 0.58 0.64 0.78 0.84 0.77 0.70 0.70 0.70
0.41 0.37 0.37 0.32 0.28 0.27 0.28 0.25 0.22 0.21 0.24 0.27 0.26 0.23 0.21 0.22 0.23 0.22 0.20 0.20 0.22 0.28 0.34 0.39 0.44 0.43 0.42 0.42 0.39 0.38 0.41 0.43 0.44 0.49 0.54 0.55 0.51 0.52 0.62 0.69 0.75 0.78 0.78 0.78
0.40 0.29 0.32 0.32 0.27 0.24 0.25 0.23 0.21 0.24 0.30 0.29 0.24 0.22 0.21 0.22 0.27 0.28 0.26 0.24 0.26 0.27 0.32 0.34 0.39 0.46 0.47 0.50 0.48 0.44 0.42 0.43 0.44 0.47 0.52 0.54 0.50 0.50 0.54 0.57 0.66 0.70 0.71 0.73
0.28 0.20 0.21 0.23 0.21 0.20 0.19 0.18 0.19 0.22 0.27 0.29 0.25 0.24 0.20 0.20 0.26 0.30 0.30 0.31 0.34 0.36 0.36 0.34 0.35 0.39 0.43 0.51 0.53 0.55 0.51 0.49 0.49 0.50 0.48 0.49 0.52 0.54 0.55 0.51 0.51 0.54 0.56 0.56
0.17 0.16 0.19 0.20 0.20 0.17 0.17 0.16 0.20 0.21 0.22 0.23 0.24 0.22 0.21 0.22 0.26 0.28 0.29 0.33 0.35 0.36 0.37 0.38 0.37 0.39 0.46 0.52 0.55 0.60 0.65 0.68 0.61 0.55 0.53 0.51 0.52 0.58 0.61 0.63 0.57 0.49 0.49 0.52
0.14 0.16 0.20 0.19 0.18 0.17 0.16 0.17 0.18 0.17 0.19 0.20 0.20 0.21 0.24 0.27 0.28 0.30 0.30 0.28 0.28 0.28 0.29 0.34 0.36 0.37 0.44 0.45 0.47 0.52 0.59 0.65 0.65 0.64 0.62 0.60 0.60 0.67 0.68 0.62 0.55 0.54 0.51 0.51
0.18 0.17 0.16 0.15 0.16 0.15 0.13 0.14 0.16 0.16 0.17 0.18 0.19 0.24 0.28 0.32 0.32 0.34 0.31 0.25 0.22 0.22 0.25 0.32 0.35 0.36 0.40 0.40 0.39 0.44 0.45 0.53 0.61 0.66 0.66 0.65 0.67 0.69 0.68 0.64 0.56 0.53 0.51 0.50
0.19 0.22 0.22 0.19 0.18 0.17 0.17 0.16 0.16 0.16 0.15 0.14 0.19 0.26 0.30 0.31 0.30 0.33 0.33 0.29 0.26 0.24 0.24 0.29 0.34 0.35 0.37 0.39 0.39 0.41 0.40 0.42 0.49 0.54 0.59 0.60 0.62 0.66 0.68 0.68 0.62 0.58 0.56 0.55
0.18 0.21 0.24 0.23 0.20 0.19 0.19 0.20 0.19 0.17 0.16 0.16 0.19 0.26 0.33 0.34 0.35 0.37 0.39 0.35 0.30 0.26 0.26 0.29 0.30 0.32 0.35 0.39 0.44 0.47 0.45 0.43 0.45 0.48 0.51 0.54 0.58 0.60 0.65 0.67 0.66 0.63 0.62 0.64
0.17 0.18 0.19 0.19 0.16 0.17 0.19 0.20 0.21 0.22 0.22 0.20 0.20 0.26 0.34 0.40 0.43 0.42 0.41 0.40 0.38 0.38 0.39 0.40 0.42 0.36 0.36 0.41 0.46 0.44 0.44 0.42 0.43 0.47 0.50 0.54 0.56 0.55 0.58 0.61 0.61 0.59 0.57 0.59
0.23 0.25 0.26 0.25 0.18 0.15 0.16 0.18 0.20 0.22 0.25 0.25 0.24 0.26 0.33 0.40 0.42 0.39 0.37 0.38 0.44 0.51 0.51 0.52 0.51 0.46 0.44 0.46 0.50 0.46 0.46 0.47 0.50 0.53 0.52 0.50 0.51 0.54 0.56 0.57 0.59 0.60 0.61 0.63
0.30 0.36 0.34 0.30 0.23 0.17 0.16 0.17 0.19 0.23 0.26 0.26 0.28 0.31 0.40 0.47 0.46 0.43 0.40 0.41 0.42 0.47 0.52 0.57 0.55 0.55 0.53 0.57 0.60 0.55 0.54 0.54 0.57 0.59 0.60 0.57 0.53 0.53 0.57 0.61 0.63 0.67 0.69 0.70
0.34 0.35 0.32 0.32 0.28 0.24 0.21 0.20 0.21 0.22 0.25 0.28 0.30 0.34 0.43 0.52 0.54 0.51 0.46 0.49 0.51 0.55 0.54 0.56 0.54 0.60 0.66 0.66 0.56 0.56 0.59 0.61 0.64 0.63 0.63 0.63 0.63 0.63 0.63 0.67 0.69 0.71 0.74 0.75
0.32 0.32 0.36 0.38 0.36 0.33 0.30 0.28 0.29 0.28 0.30 0.33 0.36 0.38 0.43 0.49 0.57 0.63 0.54 0.47 0.49 0.54 0.52 0.53 0.58 0.64 0.70 0.63 0.59 0.58 0.57 0.56 0.58 0.60 0.64 0.67 0.68 0.71 0.75 0.76 0.75 0.74 0.79 0.83
0.27 0.29 0.35 0.39 0.39 0.38 0.39 0.39 0.39 0.39 0.38 0.39 0.41 0.42 0.45 0.49 0.53 0.61 0.56 0.52 0.55 0.57 0.50 0.56 0.63 0.68 0.67 0.55 0.57 0.62 0.63 0.61 0.61 0.65 0.69 0.71 0.71 0.73 0.78 0.82 0.83 0.83 0.88 0.93
0.24 0.24 0.28 0.35 0.38 0.38 0.37 0.37 0.38 0.41 0.42 0.42 0.43 0.46 0.47 0.51 0.57 0.62 0.58 0.52 0.57 0.61 0.58 0.66 0.71 0.72 0.66 0.63 0.64 0.67 0.71 0.73 0.77 0.79 0.76 0.76 0.78 0.81 0.85 0.89 0.91 0.94 0.94 0.95
0.23 0.22 0.25 0.30 0.34 0.35 0.34 0.34 0.36 0.40 0.42 0.42 0.42 0.47 0.50 0.52 0.56 0.63 0.67 0.62 0.61 0.66 0.67 0.70 0.71 0.73 0.71 0.77 0.79 0.80 0.81 0.81 0.80 0.76 0.74 0.75 0.77 0.79 0.82 0.84 0.86 0.90 0.94 0.94
0.25 0.23 0.25 0.29 0.31 0.30 0.31 0.34 0.38 0.41 0.44 0.46 0.46 0.47 0.47 0.50 0.55 0.63 0.71 0.71 0.67 0.69 0.74 0.78 0.77 0.76 0.76 0.80 0.84 0.88 0.89 0.86 0.84 0.82 0.80 0.82 0.83 0.86 0.86 0.86 0.88 0.91 0.95 0.99